FREGAT R/B, 44116

Orbit data source: Space-Track

FREGAT R/B, 44116 is space debris originally from a launch on Thu, 04 Apr 2019 UTC launched from the French Guiana (FRGUI). Debris objects in space refer to the collection of defunct objects orbiting the Earth. Examples of debris include non-operational satellites, rocket bodies, and fragments generated from explosions, collisions, or faulty payload assembly.

Loading next visibility...
Identifier
44116, 2019-020E
Orbit
Active
Country
Flag of CISCIS
Related business
Manufacturer
Lavochkin
Mission
Spacecraft
Bus & Motor
FREGAT, Unknown motor
Mass
1,050 kg wet, 1,050 kg dry
Launch date (UTC)
2019-04-04 (6 years ago)
Launch vehicle
Unknown
Launch site
French Guiana (FRGUI)
Object type
Payload
Rocket body
Debris
Shape & HBR
Irr, 1.6 m
Radar Cross Section
11.055 m², Large (>1 m²)

Expand to show TLE details & history
Last TLE update: 12 hours ago

TLE from 12 hours ago
0 FREGAT R/B
1 44116U 19020E   25242.69190571 -.00000019  00000-0  00000-0 0  9992
2 44116   0.1004 331.6962 0006938 313.7438  74.4842  5.21008529121351
Epoch: 2025-08-30T16:36Z
TLE epoch observation values (Epoch: 2025-08-30T16:36:20.653Z)
Latitude
0.04521°
Longitude
131.79128°
Altitude
7,672.939 km
Speed
5.328 km/s
True Right ascension
23h 59m 59s
True Declination
0° 02' 42"
Sunlit
Object was in full shadow at epoch
Visualization orbit readout
Latitude
Unknown
Longitude
Unknown
Altitude
Unknown
Speed
Unknown
Apparent Right ascension
Unknown
Apparent Declination
Unknown
Sunlit
N/A
Visualization observer readout
Local Sidereal Time
20:24:00
Azimuth
Unknown
Elevation
Unknown
Doppler factor
Unknown
Orbital elements
Apogee altitude
7,690.011 km
Perigee altitude
7,670.503 km
Semi-major axis
14,058.394 km
Eccentricity
0.00069
Inclination
0.1004°
RAAN
331.6962°
Arg. of periapsis
313.7438°
True anomaly
74.56082°
Mean anomaly
74.4842°
Eccentric anomaly
74.52251°
Mean motion
1.30209 °/min
Orbital period
276.48 mins
BSTAR
0
Loading maneuver chart data...
Computing Atmospheric mass density...
Loading historical data...
Loading historical data...
Loading historical data...
Loading historical data...
Loading historical data...
Loading historical data...
Loading historical data...
Other satellites on launch #20 in the year 2019 (2019-04-04 UTC)

Documentation

Showing up to 5 results
|